{"data":{"norad_id":59720,"intl_designator":"2024-088N","name":"STARLINK-11095 [DTC]","alt_names":[],"object_type":"PAYLOAD","status":"ACTIVE","operator":null,"country":"US","launch_date":"2024-05-10","launch_site_code":"AFWTR","launch_vehicle":null,"mission":null,"orbit_class":"UNKNOWN","rcs_meters":null,"size_class":null,"mass_kg":null,"dimensions":null,"purposes":["comms"],"wikipedia_slug":null,"has_3d_model":false,"image_url":null,"decayed_at":null,"tle_current":{"epoch":"2026-05-24T21:19:10.206912Z","epoch_age_seconds":84360,"freshness":"FRESH","line1":"1 59720U 24088N   26144.88831258  .00001689  00000+0  18792-4 0  9999","line2":"2 59720  53.1583 310.3720 0000872 117.2794 242.8313 15.69711772118249","mean_motion":15.69711772,"eccentricity":8.72e-5,"inclination_deg":53.1583,"raan_deg":310.372,"arg_perigee_deg":117.2794,"mean_anomaly_deg":242.8313,"bstar":1.8792e-5,"rev_number":11824,"period_min":91.736586657898,"perigee_km":359.13413836197,"apogee_km":360.3092209157,"semimajor_km":6737.8586796388,"source":"CELESTRAK","updated_at":"2026-05-25T13:38:19.048338Z"}}}